QPF
0.00 0.00 0.00 0.00 0.00 0.00 0.00 0.00 0.00 0.00 0.00 0.00 0.00 0.00 0.00 0.00 0.00 0.00 0.00 0.00 0.00 0.00 0.00 0.00 0.00 0.00 0.00 0.00 0.00 0.00 0.00 0.00 0.00 0.00 0.00 0.00 0.00 0.00 0.00 0.00 0.00 0.00 0.00 0.00 0.00 0.00 0.00 0.00 0.00 0.00 0.00 0.00 0.00 0.00 0.00 0.00 0.00 0.00 0.00 0.00 0.00 0.00
0.00 0.00 0.00 0.00 0.00 0.00 0.00 0.00 0.00 0.00 0.00 0.00 0.00 0.00 0.00 0.00 0.00 0.00 0.00 0.00 0.00 0.00 0.00 0.00 0.00 0.00 0.00 0.00 0.00 0.00 0.00 0.00 0.00 0.00 0.00 0.00 0.00 0.00 0.00 0.00 0.00 0.00 0.00 0.00 0.00 0.00 0.00 0.00 0.00 0.00 0.00 0.00 0.00 0.00 0.00 0.00 0.00 0.00 0.00 0.00 0.00 0.00
0.00 0.00 0.00 0.00 0.00 0.00 0.00 0.00 0.00 0.00 0.00 0.00 0.00 0.00 0.00 0.00 0.00 0.00 0.00 0.00 0.00 0.00 0.00 0.00 0.00 0.00 0.00 0.00 0.00 0.00 0.00 0.00 0.00 0.00 0.00 0.00 0.00 0.00 0.00 0.00 0.00 0.00 0.00 0.00 0.00 0.00 0.00 0.00 0.00 0.00 0.00 0.00 0.00 0.00 0.00 0.00 0.00 0.00 0.00 0.00 0.00 0.00
0.00 0.00 0.00 0.00 0.00 0.00 0.00 0.00 0.00 0.00 0.00 0.00 0.00 0.00 0.00 0.00 0.00 0.00 0.00 0.00 0.00 0.00 0.00 0.00 0.00 0.00 0.00 0.00 0.00 0.00 0.00 0.00 0.00 0.00 0.00 0.00 0.00 0.00 0.00 0.00 0.00 0.00 0.00 0.00 0.00 0.00 0.00 0.00 0.00 0.00 0.00 0.00 0.00 0.00 0.00 0.00 0.00 0.00 0.00 0.00 0.00 0.00
0.00 0.00 0.00 0.00 0.00 0.00 0.00 0.00 0.00 0.00 0.00 0.00 0.00 0.00 0.00 0.00 0.00 0.00 0.00 0.00 0.00 0.00 0.00 0.00 0.00 0.00 0.00 0.00 0.00 0.00 0.00 0.00 0.00 0.00 0.00 0.00 0.00 0.00 0.00 0.00 0.00 0.00 0.00 0.00 0.00 0.00 0.00 0.00 0.00 0.00 0.00 0.00 0.00 0.00 0.00 0.00 0.00 0.00 0.00 0.00 0.00 0.00
0.01 0.01 0.00 0.00 0.00 0.00 0.00 0.00 0.00 0.00 0.00 0.00 0.00 0.00 0.00 0.00 0.00 0.00 0.00 0.00 0.00 0.00 0.00 0.00 0.00 0.00 0.00 0.00 0.00 0.00 0.00 0.00 0.00 0.00 0.00 0.00 0.00 0.00 0.00 0.00 0.00 0.00 0.00 0.00 0.00 0.00 0.00 0.00 0.00 0.00 0.00 0.00 0.00 0.00 0.00 0.00 0.00 0.00 0.00 0.00 0.00 0.00
0.00 0.00 0.00 0.00 0.00 0.00 0.00 0.00 0.00 0.00 0.00 0.00 0.00 0.00 0.00 0.00 0.00 0.00 0.00 0.00 0.00 0.00 0.00 0.00 0.00 0.00 0.00 0.00 0.00 0.00 0.00 0.00 0.00 0.00 0.00 0.00 0.00 0.00 0.00 0.00 0.00 0.00 0.00 0.00 0.00 0.00 0.00 0.00 0.00 0.00 0.00 0.00 0.00 0.00 0.00 0.00 0.00 0.00 0.00 0.00 0.00 0.00
0.00 0.00 0.00 0.00 0.00 0.00 0.00 0.00 0.00 0.00 0.00 0.00 0.00 0.00 0.00 0.00 0.00 0.00 0.00 0.00 0.00 0.00 0.00 0.00 0.00 0.00 0.00 0.00 0.00 0.00 0.00 0.00 0.00 0.00 0.00 0.00 0.00 0.00 0.00 0.00 0.00 0.00 0.00 0.00 0.00 0.00 0.00 0.00 0.00 0.00 0.00 0.00 0.00 0.00 0.00 0.00 0.00 0.00 0.00 0.00 0.00 0.00
0.00 0.00 0.00 0.00 0.00 0.00 0.00 0.00 0.00 0.00 0.00 0.00 0.00 0.00 0.00 0.00 0.00 0.00 0.00 0.00 0.00 0.00 0.00 0.00 0.00 0.00 0.00 0.00 0.00 0.00 0.00 0.00 0.00 0.00 0.00 0.00 0.00 0.00 0.00 0.00 0.00 0.00 0.00 0.00 0.00 0.00 0.00 0.00 0.00 0.00 0.00 0.00 0.00 0.00 0.00 0.00 0.00 0.00 0.00 0.00 0.00 0.00
0.00 0.00 0.00 0.00 0.00 0.00 0.00 0.00 0.00 0.00 0.00 0.00 0.00 0.00 0.00 0.00 0.00 0.00 0.00 0.00 0.00 0.00 0.00 0.00 0.00 0.00 0.00 0.00 0.00 0.00 0.00 0.00 0.00 0.00 0.00 0.00 0.00 0.00 0.00 0.00 0.00 0.00 0.00 0.00 0.00 0.00 0.00 0.00 0.00 0.00 0.00 0.00 0.00 0.00 0.00 0.00 0.00 0.00 0.00 0.00 0.00 0.00
0.00 0.00 0.00 0.00 0.00 0.00 0.00 0.00 0.00 0.00 0.00 0.00 0.00 0.00 0.00 0.00 0.00 0.00 0.00 0.00 0.00 0.00 0.00 0.00 0.00 0.00 0.00 0.00 0.00 0.00 0.00 0.00 0.00 0.00 0.00 0.00 0.00 0.00 0.00 0.00 0.00 0.00 0.00 0.00 0.00 0.00 0.00 0.00 0.00 0.00 0.00 0.00 0.00 0.00 0.00 0.00 0.00 0.00 0.00 0.00 0.00 0.00
0.00 0.00 0.00 0.00 0.00 0.00 0.00 0.00 0.00 0.00 0.00 0.00 0.00 0.00 0.00 0.00 0.00 0.00 0.00 0.00 0.00 0.00 0.00 0.00 0.00 0.00 0.00 0.00 0.00 0.00 0.00 0.00 0.00 0.00 0.00 0.00 0.00 0.00 0.00 0.00 0.00 0.00 0.00 0.00 0.00 0.00 0.00 0.00 0.00 0.00 0.00 0.00 0.00 0.00 0.00 0.00 0.00 0.00 0.00 0.00 0.00 0.00
0.00 0.00 0.00 0.00 0.00 0.00 0.00 0.00 0.00 0.00 0.00 0.00 0.00 0.00 0.00 0.00 0.00 0.00 0.00 0.00 0.00 0.00 0.00 0.00 0.00 0.00 0.00 0.00 0.00 0.00 0.00 0.00 0.00 0.00 0.00 0.00 0.00 0.00 0.00 0.00 0.00 0.00 0.00 0.00 0.00 0.00 0.00 0.00 0.00 0.00 0.00 0.00 0.00 0.00 0.00 0.00 0.00 0.00 0.00 0.00 0.00 0.00
0.00 0.00 0.00 0.00 0.00 0.00 0.00 0.00 0.00 0.00 0.00 0.00 0.00 0.00 0.00 0.00 0.00 0.00 0.00 0.00 0.00 0.00 0.00 0.00 0.00 0.00 0.00 0.00 0.00 0.00 0.00 0.00 0.00 0.00 0.00 0.00 0.00 0.00 0.00 0.00 0.00 0.00 0.00 0.00 0.00 0.00 0.00 0.00 0.00 0.00 0.00 0.00 0.00 0.00 0.00 0.00 0.00 0.00 0.00 0.00 0.00 0.00
0.00 0.00 0.00 0.00 0.00 0.00 0.00 0.00 0.00 0.00 0.00 0.00 0.00 0.00 0.00 0.00 0.00 0.00 0.00 0.00 0.00 0.00 0.00 0.00 0.00 0.00 0.00 0.00 0.00 0.00 0.00 0.00 0.00 0.00 0.00 0.00 0.00 0.00 0.00 0.00 0.00 0.00 0.00 0.00 0.00 0.00 0.00 0.00 0.00 0.00 0.00 0.00 0.00 0.00 0.00 0.00 0.00 0.00 0.00 0.00 0.00 0.00
0.00 0.00 0.00 0.00 0.00 0.00 0.00 0.00 0.00 0.00 0.00 0.00 0.00 0.00 0.00 0.00 0.00 0.00 0.00 0.00 0.00 0.00 0.00 0.00 0.00 0.00 0.00 0.00 0.00 0.00 0.00 0.00 0.00 0.00 0.00 0.00 0.00 0.00 0.00 0.00 0.00 0.00 0.00 0.00 0.00 0.00 0.00 0.00 0.00 0.00 0.00 0.00 0.00 0.00 0.00 0.00 0.00 0.00 0.00 0.00 0.00 0.00
0.00 0.00 0.00 0.00 0.00 0.00 0.00 0.00 0.00 0.00 0.00 0.00 0.00 0.00 0.00 0.00 0.00 0.00 0.00 0.00 0.00 0.00 0.00 0.00 0.00 0.00 0.00 0.00 0.00 0.00 0.00 0.00 0.00 0.00 0.00 0.00 0.00 0.00 0.00 0.00 0.00 0.00 0.00 0.00 0.00 0.00 0.00 0.00 0.00 0.00 0.00 0.00 0.00 0.00 0.00 0.00 0.00 0.00 0.00 0.00 0.00 0.00
0.00 0.00 0.00 0.00 0.00 0.00 0.00 0.00 0.00 0.00 0.00 0.00 0.00 0.00 0.00 0.00 0.00 0.00 0.00 0.00 0.00 0.00 0.00 0.00 0.00 0.00 0.00 0.00 0.00 0.00 0.00 0.00 0.00 0.00 0.00 0.00 0.00 0.00 0.00 0.00 0.00 0.00 0.00 0.00 0.00 0.00 0.00 0.00 0.00 0.00 0.00 0.00 0.00 0.00 0.00 0.00 0.00 0.00 0.00 0.00 0.00 0.00
0.00 0.00 0.00 0.00 0.00 0.00 0.00 0.00 0.00 0.00 0.00 0.00 0.00 0.00 0.00 0.00 0.00 0.00 0.00 0.00 0.00 0.00 0.00 0.00 0.00 0.00 0.00 0.00 0.00 0.00 0.00 0.00 0.00 0.00 0.00 0.00 0.00 0.00 0.00 0.00 0.00 0.00 0.00 0.00 0.00 0.00 0.00 0.00 0.00 0.00 0.00 0.00 0.00 0.00 0.00 0.00 0.00 0.00 0.00 0.00 0.00 0.00
0.00 0.00 0.00 0.00 0.00 0.00 0.00 0.00 0.00 0.00 0.00 0.00 0.00 0.00 0.00 0.00 0.00 0.00 0.00 0.00 0.00 0.00 0.00 0.00 0.00 0.00 0.00 0.00 0.00 0.00 0.00 0.00 0.00 0.00 0.00 0.00 0.00 0.00 0.00 0.00 0.00 0.00 0.00 0.00 0.00 0.00 0.00 0.00 0.00 0.00 0.00 0.00 0.00 0.00 0.00 0.00 0.00 0.00 0.00 0.00 0.00 0.00
0.00 0.00 0.00 0.00 0.00 0.00 0.00 0.00 0.00 0.00 0.00 0.00 0.00 0.00 0.00 0.00 0.00 0.00 0.00 0.00 0.00 0.00 0.00 0.00 0.00 0.00 0.00 0.00 0.00 0.00 0.00 0.00 0.00 0.00 0.00 0.00 0.00 0.00 0.00 0.00 0.00 0.00 0.00 0.00 0.00 0.00 0.00 0.00 0.00 0.00 0.00 0.00 0.00 0.00 0.00 0.00 0.00 0.00 0.00 0.00 0.00 0.00
0.00 0.00 0.00 0.00 0.00 0.00 0.00 0.00 0.00 0.00 0.00 0.00 0.00 0.00 0.00 0.00 0.00 0.00 0.00 0.00 0.00 0.00 0.00 0.00 0.00 0.00 0.00 0.00 0.00 0.00 0.00 0.00 0.00 0.00 0.00 0.00 0.00 0.00 0.00 0.00 0.00 0.00 0.00 0.00 0.00 0.00 0.00 0.00 0.00 0.00 0.00 0.00 0.00 0.00 0.00 0.00 0.00 0.00 0.00 0.00 0.00 0.00
0.00 0.00 0.00 0.00 0.00 0.00 0.00 0.00 0.00 0.00 0.00 0.00 0.00 0.00 0.00 0.00 0.00 0.00 0.00 0.00 0.00 0.00 0.00 0.00 0.00 0.00 0.00 0.00 0.00 0.00 0.00 0.00 0.00 0.00 0.00 0.00 0.00 0.00 0.00 0.00 0.00 0.00 0.00 0.00 0.00 0.00 0.00 0.00 0.00 0.00 0.00 0.00 0.00 0.00 0.00 0.00 0.00 0.00 0.00 0.00 0.00 0.00
0.00 0.00 0.00 0.00 0.00 0.00 0.00 0.00 0.00 0.00 0.00 0.00 0.00 0.00 0.00 0.00 0.00 0.00 0.00 0.00 0.00 0.00 0.00 0.00 0.00 0.00 0.00 0.00 0.00 0.00 0.00 0.00 0.00 0.00 0.00 0.00 0.00 0.00 0.00 0.00 0.00 0.00 0.00 0.00 0.00 0.00 0.00 0.00 0.00 0.00 0.00 0.00 0.00 0.00 0.00 0.00 0.00 0.00 0.00 0.00 0.00 0.00
0.00 0.00 0.00 0.00 0.00 0.00 0.00 0.00 0.00 0.00 0.00 0.00 0.00 0.00 0.00 0.00 0.00 0.00 0.00 0.00 0.00 0.00 0.00 0.00 0.00 0.00 0.00 0.00 0.00 0.00 0.00 0.00 0.00 0.00 0.00 0.00 0.00 0.00 0.00 0.00 0.00 0.00 0.00 0.00 0.00 0.00 0.00 0.00 0.00 0.00 0.00 0.00 0.00 0.00 0.00 0.00 0.00 0.00 0.00 0.00 0.00 0.00
0.00 0.00 0.00 0.00 0.00 0.00 0.00 0.00 0.00 0.00 0.00 0.00 0.00 0.00 0.00 0.00 0.00 0.00 0.00 0.00 0.00 0.00 0.00 0.00 0.00 0.00 0.00 0.00 0.00 0.00 0.00 0.00 0.00 0.00 0.00 0.00 0.00 0.00 0.00 0.00 0.00 0.00 0.00 0.00 0.00 0.00 0.00 0.00 0.00 0.00 0.00 0.00 0.00 0.00 0.00 0.00 0.00 0.00 0.00 0.00 0.00 0.00
0.00 0.00 0.00 0.00 0.00 0.00 0.00 0.00 0.00 0.00 0.00 0.00 0.00 0.00 0.00 0.00 0.00 0.00 0.00 0.00 0.00 0.00 0.00 0.00 0.00 0.00 0.00 0.00 0.00 0.00 0.00 0.00 0.00 0.00 0.00 0.00 0.00 0.00 0.00 0.00 0.00 0.00 0.00 0.00 0.00 0.00 0.00 0.00 0.00 0.00 0.00 0.00 0.00 0.00 0.00 0.00 0.00 0.00 0.00 0.00 0.00 0.00
0.00 0.00 0.00 0.00 0.00 0.00 0.00 0.00 0.00 0.00 0.00 0.00 0.00 0.00 0.00 0.00 0.00 0.00 0.00 0.00 0.00 0.00 0.00 0.00 0.00 0.00 0.00 0.00 0.00 0.00 0.00 0.00 0.00 0.00 0.00 0.00 0.00 0.00 0.00 0.00 0.00 0.00 0.00 0.00 0.00 0.00 0.00 0.00 0.00 0.00 0.00 0.00 0.00 0.00 0.00 0.00 0.00 0.00 0.00 0.00 0.00 0.00
0.00 0.00 0.00 0.00 0.00 0.00 0.00 0.00 0.00 0.00 0.00 0.00 0.00 0.00 0.00 0.00 0.00 0.00 0.00 0.00 0.00 0.00 0.00 0.00 0.00 0.00 0.00 0.00 0.00 0.00 0.00 0.00 0.00 0.00 0.00 0.00 0.00 0.00 0.00 0.00 0.00 0.00 0.00 0.00 0.00 0.00 0.00 0.00 0.00 0.00 0.00 0.00 0.00 0.00 0.00 0.00 0.00 0.00 0.00 0.00 0.00 0.00
0.00 0.00 0.00 0.00 0.00 0.00 0.00 0.00 0.00 0.00 0.00 0.00 0.00 0.00 0.00 0.00 0.00 0.00 0.00 0.00 0.00 0.00 0.00 0.00 0.00 0.00 0.00 0.00 0.00 0.00 0.00 0.00 0.00 0.00 0.00 0.00 0.00 0.00 0.00 0.00 0.00 0.00 0.00 0.00 0.00 0.00 0.00 0.00 0.00 0.00 0.00 0.00 0.00 0.00 0.00 0.00 0.00 0.00 0.00 0.00 0.00 0.00
0.00 0.00 0.00 0.00 0.00 0.00 0.00 0.00 0.00 0.00 0.00 0.00 0.00 0.00 0.00 0.00 0.00 0.00 0.00 0.00 0.00 0.00 0.00 0.00 0.00 0.00 0.00 0.00 0.00 0.00 0.00 0.00 0.00 0.00 0.00 0.00 0.00 0.00 0.00 0.01 0.01 0.02 0.02 0.02 0.01 0.01 0.01 0.01 0.01 0.01 0.00 0.00 0.00 0.01 0.01 0.01 0.01 0.01 0.01 0.01 0.01 0.02
0.00 0.00 0.00 0.00 0.00 0.00 0.00 0.00 0.00 0.00 0.00 0.00 0.00 0.00 0.00 0.00 0.00 0.00 0.00 0.00 0.00 0.00 0.00 0.00 0.00 0.00 0.00 0.00 0.00 0.00 0.00 0.00 0.00 0.00 0.00 0.00 0.00 0.00 0.01 0.03 0.02 0.03 0.03 0.03 0.03 0.03 0.03 0.03 0.02 0.03 0.03 0.04 0.03 0.03 0.03 0.03 0.03 0.03 0.03 0.03 0.03 0.03
0.00 0.00 0.00 0.00 0.00 0.00 0.00 0.00 0.00 0.00 0.00 0.00 0.00 0.00 0.00 0.00 0.00 0.00 0.00 0.00 0.00 0.00 0.00 0.00 0.00 0.00 0.00 0.00 0.00 0.00 0.00 0.00 0.00 0.00 0.00 0.00 0.00 0.00 0.01 0.02 0.02 0.02 0.02 0.03 0.03 0.03 0.03 0.03 0.03 0.03 0.04 0.04 0.05 0.05 0.04 0.04 0.03 0.03 0.03 0.04 0.05 0.05
0.00 0.00 0.00 0.00 0.00 0.00 0.00 0.00 0.00 0.00 0.00 0.00 0.00 0.00 0.00 0.00 0.00 0.00 0.00 0.00 0.00 0.00 0.00 0.00 0.00 0.00 0.00 0.00 0.00 0.00 0.00 0.00 0.00 0.00 0.00 0.00 0.00 0.00 0.00 0.01 0.01 0.01 0.01 0.02 0.02 0.02 0.03 0.03 0.03 0.03 0.03 0.03 0.04 0.04 0.05 0.05 0.05 0.05 0.04 0.05 0.06 0.06
0.00 0.00 0.00 0.00 0.00 0.00 0.00 0.00 0.00 0.00 0.00 0.00 0.00 0.00 0.00 0.00 0.00 0.00 0.00 0.00 0.00 0.00 0.00 0.00 0.00 0.00 0.00 0.00 0.00 0.00 0.00 0.00 0.00 0.00 0.00 0.00 0.00 0.00 0.00 0.00 0.00 0.00 0.01 0.01 0.01 0.01 0.02 0.02 0.02 0.02 0.02 0.02 0.03 0.03 0.03 0.03 0.03 0.04 0.04 0.04 0.05 0.07
0.00 0.00 0.00 0.00 0.00 0.00 0.00 0.00 0.00 0.00 0.00 0.00 0.00 0.00 0.00 0.00 0.00 0.00 0.00 0.00 0.00 0.00 0.00 0.00 0.00 0.00 0.00 0.00 0.00 0.00 0.00 0.00 0.00 0.00 0.00 0.00 0.00 0.00 0.00 0.00 0.00 0.00 0.00 0.00 0.00 0.01 0.01 0.01 0.02 0.02 0.03 0.03 0.03 0.03 0.03 0.03 0.03 0.03 0.03 0.04 0.05 0.05
0.00 0.00 0.00 0.00 0.00 0.00 0.00 0.00 0.00 0.00 0.00 0.00 0.00 0.00 0.00 0.00 0.00 0.00 0.00 0.00 0.00 0.00 0.00 0.00 0.00 0.00 0.00 0.00 0.00 0.00 0.00 0.00 0.00 0.00 0.00 0.00 0.00 0.00 0.00 0.00 0.00 0.00 0.00 0.00 0.00 0.00 0.01 0.02 0.02 0.02 0.03 0.03 0.03 0.03 0.04 0.04 0.04 0.03 0.02 0.02 0.02 0.04
0.00 0.00 0.00 0.00 0.00 0.00 0.00 0.00 0.00 0.00 0.00 0.00 0.00 0.00 0.00 0.00 0.00 0.00 0.00 0.00 0.00 0.00 0.00 0.00 0.00 0.00 0.00 0.00 0.00 0.00 0.00 0.01 0.01 0.00 0.00 0.00 0.00 0.00 0.00 0.00 0.00 0.00 0.00 0.00 0.00 0.00 0.01 0.01 0.01 0.01 0.02 0.03 0.03 0.05 0.06 0.07 0.07 0.04 0.02 0.02 0.01 0.01
MSLP
1020.61 1020.53 1020.41 1020.25 1020.29 1020.25 1020.25 1020.25 1020.29 1020.45 1020.57 1020.73 1020.77 1020.85 1020.89 1020.93 1020.89 1020.81 1020.77 1020.73 1020.69 1020.61 1020.49 1020.33 1020.09 1019.89 1019.77 1019.65 1019.49 1019.33 1019.13 1018.97 1018.81 1018.73 1018.65 1018.41 1018.17 1017.97 1017.77 1017.61 1017.41 1017.17 1016.85 1016.65 1016.57 1016.49 1016.29 1016.01 1015.69 1015.45 1015.29 1015.21 1015.21 1015.29 1015.29 1015.29 1015.33 1015.33 1015.29 1015.29 1015.33 1015.29
1020.41 1020.45 1020.45 1020.41 1020.33 1020.29 1020.25 1020.29 1020.41 1020.57 1020.65 1020.69 1020.73 1020.77 1020.77 1020.73 1020.73 1020.77 1020.77 1020.69 1020.65 1020.65 1020.65 1020.61 1020.57 1020.45 1020.29 1020.13 1019.89 1019.69 1019.53 1019.37 1019.25 1019.09 1018.89 1018.73 1018.53 1018.25 1018.05 1017.85 1017.61 1017.33 1017.05 1016.81 1016.65 1016.49 1016.37 1016.13 1015.81 1015.57 1015.33 1015.21 1015.17 1015.17 1015.21 1015.17 1015.21 1015.25 1015.25 1015.21 1015.17 1015.13
1020.25 1020.33 1020.37 1020.33 1020.21 1020.25 1020.33 1020.41 1020.61 1020.61 1020.65 1020.73 1020.77 1020.81 1020.85 1020.85 1020.81 1020.77 1020.73 1020.65 1020.61 1020.65 1020.65 1020.69 1020.69 1020.69 1020.69 1020.53 1020.29 1020.13 1019.93 1019.77 1019.57 1019.41 1019.33 1019.13 1018.93 1018.69 1018.37 1018.05 1017.77 1017.45 1017.13 1016.81 1016.53 1016.37 1016.21 1016.01 1015.73 1015.49 1015.25 1015.13 1015.05 1015.05 1015.05 1015.01 1015.05 1015.09 1015.13 1015.21 1015.05 1015.05
1020.05 1020.09 1020.09 1020.13 1020.25 1020.37 1020.57 1020.65 1020.77 1020.81 1020.85 1020.89 1020.93 1021.01 1021.05 1021.05 1020.97 1020.89 1020.81 1020.73 1020.69 1020.65 1020.65 1020.69 1020.73 1020.77 1020.73 1020.61 1020.45 1020.29 1020.13 1019.97 1019.85 1019.69 1019.53 1019.37 1019.13 1018.93 1018.73 1018.45 1018.25 1017.97 1017.65 1017.29 1016.89 1016.57 1016.29 1015.97 1015.69 1015.33 1015.05 1014.85 1014.81 1014.81 1014.81 1014.81 1014.81 1014.89 1014.93 1015.01 1014.97 1014.89
1019.73 1019.81 1019.89 1020.05 1020.25 1020.41 1020.57 1020.73 1020.81 1020.85 1020.89 1020.97 1021.05 1021.13 1021.17 1021.13 1021.09 1020.97 1020.89 1020.85 1020.81 1020.77 1020.73 1020.73 1020.73 1020.73 1020.65 1020.57 1020.45 1020.33 1020.17 1020.01 1019.89 1019.73 1019.65 1019.45 1019.21 1018.97 1018.73 1018.53 1018.29 1018.05 1017.77 1017.49 1017.13 1016.81 1016.49 1016.17 1015.85 1015.53 1015.25 1015.05 1014.93 1014.77 1014.73 1014.69 1014.65 1014.69 1014.69 1014.73 1014.65 1014.61
1019.65 1019.69 1019.93 1020.09 1020.29 1020.57 1020.69 1020.77 1020.81 1020.81 1020.85 1020.93 1021.05 1021.21 1021.17 1021.17 1021.09 1021.05 1020.97 1020.93 1020.89 1020.89 1020.85 1020.81 1020.77 1020.69 1020.65 1020.61 1020.53 1020.45 1020.29 1020.13 1019.97 1019.81 1019.77 1019.61 1019.49 1019.29 1019.01 1018.73 1018.45 1018.17 1017.85 1017.53 1017.13 1016.81 1016.45 1016.13 1015.85 1015.57 1015.37 1015.21 1015.09 1014.97 1014.81 1014.65 1014.57 1014.53 1014.45 1014.41 1014.33 1014.29
1019.73 1019.89 1020.09 1020.29 1020.53 1020.77 1020.81 1020.81 1020.81 1020.77 1020.89 1021.01 1021.17 1021.29 1021.33 1021.33 1021.25 1021.21 1021.09 1020.97 1020.93 1020.89 1020.93 1020.89 1020.85 1020.77 1020.69 1020.61 1020.57 1020.53 1020.41 1020.29 1020.13 1019.97 1019.85 1019.69 1019.53 1019.37 1019.21 1018.93 1018.61 1018.25 1017.85 1017.41 1017.01 1016.65 1016.33 1016.05 1015.77 1015.57 1015.33 1015.13 1015.01 1014.93 1014.77 1014.57 1014.41 1014.25 1014.13 1014.05 1013.93 1013.81
1019.93 1020.09 1020.29 1020.45 1020.53 1020.65 1020.69 1020.69 1020.73 1020.81 1020.93 1021.13 1021.21 1021.37 1021.45 1021.41 1021.41 1021.41 1021.29 1021.21 1021.13 1021.05 1020.93 1020.89 1020.81 1020.81 1020.73 1020.57 1020.49 1020.37 1020.29 1020.21 1020.09 1019.97 1019.85 1019.65 1019.33 1019.09 1018.89 1018.61 1018.29 1018.05 1017.69 1017.33 1016.93 1016.57 1016.25 1015.93 1015.69 1015.45 1015.17 1014.97 1014.77 1014.65 1014.45 1014.29 1014.13 1013.93 1013.77 1013.65 1013.53 1013.45
1020.21 1020.25 1020.41 1020.49 1020.61 1020.69 1020.73 1020.77 1020.89 1020.93 1021.05 1021.17 1021.21 1021.25 1021.29 1021.33 1021.37 1021.37 1021.29 1021.21 1021.21 1021.09 1021.01 1020.97 1020.85 1020.77 1020.61 1020.45 1020.37 1020.29 1020.21 1020.13 1019.97 1019.81 1019.65 1019.37 1019.09 1018.77 1018.49 1018.25 1017.97 1017.69 1017.41 1017.05 1016.73 1016.41 1016.05 1015.73 1015.49 1015.25 1015.01 1014.77 1014.57 1014.37 1014.17 1013.97 1013.81 1013.65 1013.49 1013.29 1013.21 1013.09
1020.05 1020.17 1020.25 1020.37 1020.45 1020.53 1020.61 1020.69 1020.77 1020.93 1021.05 1021.17 1021.21 1021.29 1021.29 1021.29 1021.33 1021.33 1021.29 1021.25 1021.13 1021.05 1020.89 1020.77 1020.65 1020.53 1020.37 1020.25 1020.13 1020.05 1019.97 1019.97 1019.89 1019.81 1019.61 1019.37 1019.05 1018.69 1018.41 1018.09 1017.81 1017.49 1017.25 1016.89 1016.53 1016.21 1015.93 1015.65 1015.37 1015.09 1014.85 1014.65 1014.45 1014.21 1013.97 1013.77 1013.57 1013.41 1013.21 1013.01 1012.85 1012.73
1019.97 1020.09 1020.17 1020.21 1020.29 1020.41 1020.45 1020.49 1020.61 1020.69 1020.77 1020.85 1020.89 1021.01 1021.05 1021.13 1021.17 1021.21 1021.25 1021.29 1021.21 1021.09 1020.97 1020.81 1020.69 1020.49 1020.25 1019.97 1019.77 1019.57 1019.49 1019.41 1019.37 1019.25 1019.13 1018.97 1018.73 1018.41 1018.13 1017.85 1017.61 1017.33 1017.01 1016.69 1016.41 1016.05 1015.81 1015.53 1015.25 1015.01 1014.77 1014.53 1014.25 1014.13 1013.93 1013.65 1013.41 1013.21 1012.97 1012.73 1012.53 1012.33
1019.77 1019.89 1020.01 1020.13 1020.25 1020.33 1020.41 1020.49 1020.57 1020.61 1020.73 1020.73 1020.77 1020.85 1020.89 1020.97 1020.97 1021.05 1021.09 1021.09 1021.05 1020.93 1020.85 1020.73 1020.61 1020.49 1020.33 1020.17 1019.93 1019.65 1019.45 1019.29 1019.13 1018.97 1018.85 1018.65 1018.45 1018.13 1017.85 1017.57 1017.33 1017.09 1016.81 1016.49 1016.17 1015.93 1015.65 1015.37 1015.09 1014.77 1014.49 1014.25 1014.05 1013.85 1013.69 1013.45 1013.25 1013.01 1012.77 1012.49 1012.21 1011.97
1019.49 1019.73 1019.89 1020.01 1020.13 1020.17 1020.25 1020.33 1020.37 1020.45 1020.53 1020.61 1020.73 1020.81 1020.81 1020.81 1020.89 1020.93 1021.05 1021.01 1020.97 1020.89 1020.77 1020.73 1020.65 1020.53 1020.41 1020.21 1020.05 1019.81 1019.61 1019.37 1019.13 1018.93 1018.69 1018.41 1018.17 1017.93 1017.57 1017.25 1016.97 1016.73 1016.49 1016.25 1015.93 1015.57 1015.33 1015.09 1014.77 1014.45 1014.17 1013.85 1013.57 1013.41 1013.25 1013.09 1012.85 1012.69 1012.45 1012.25 1011.97 1011.65
1019.41 1019.61 1019.73 1019.77 1019.81 1019.89 1020.01 1020.13 1020.17 1020.29 1020.41 1020.53 1020.69 1020.73 1020.73 1020.81 1020.89 1020.93 1020.93 1020.97 1020.89 1020.85 1020.81 1020.73 1020.61 1020.53 1020.33 1020.17 1019.97 1019.69 1019.45 1019.21 1019.01 1018.77 1018.49 1018.25 1017.89 1017.61 1017.37 1017.09 1016.77 1016.45 1016.13 1015.89 1015.57 1015.29 1014.97 1014.61 1014.33 1014.01 1013.73 1013.45 1013.21 1013.01 1012.85 1012.65 1012.45 1012.21 1012.01 1011.77 1011.53 1011.25
1019.17 1019.33 1019.41 1019.53 1019.53 1019.65 1019.69 1019.77 1020.01 1020.17 1020.29 1020.45 1020.49 1020.61 1020.69 1020.77 1020.89 1020.97 1020.97 1020.93 1020.89 1020.77 1020.73 1020.61 1020.49 1020.29 1020.09 1019.93 1019.69 1019.49 1019.21 1018.97 1018.73 1018.45 1018.25 1017.97 1017.73 1017.53 1017.25 1016.85 1016.57 1016.21 1015.89 1015.65 1015.29 1014.89 1014.53 1014.21 1013.81 1013.53 1013.29 1013.05 1012.81 1012.53 1012.37 1012.21 1011.97 1011.77 1011.45 1011.21 1010.97 1010.73
1018.89 1019.01 1019.13 1019.25 1019.41 1019.53 1019.69 1019.81 1019.97 1020.09 1020.25 1020.41 1020.53 1020.73 1020.89 1020.97 1021.09 1021.17 1021.13 1021.01 1020.85 1020.77 1020.61 1020.45 1020.29 1020.09 1019.81 1019.57 1019.37 1019.13 1018.89 1018.65 1018.45 1018.21 1018.05 1017.89 1017.69 1017.49 1017.17 1016.81 1016.53 1016.13 1015.73 1015.41 1015.09 1014.65 1014.21 1013.81 1013.37 1013.09 1012.85 1012.57 1012.33 1012.09 1011.89 1011.61 1011.41 1011.17 1010.93 1010.61 1010.37 1010.13
1018.81 1018.89 1019.05 1019.21 1019.57 1019.93 1020.01 1020.09 1020.17 1020.29 1020.45 1020.57 1020.77 1020.93 1021.05 1021.21 1021.29 1021.29 1021.25 1021.05 1020.81 1020.69 1020.53 1020.37 1020.17 1019.93 1019.69 1019.41 1019.21 1018.93 1018.61 1018.41 1018.17 1018.01 1017.89 1017.81 1017.61 1017.37 1017.05 1016.77 1016.37 1015.93 1015.61 1015.21 1014.89 1014.49 1013.93 1013.29 1012.89 1012.69 1012.49 1012.17 1011.85 1011.53 1011.33 1011.09 1010.85 1010.49 1010.17 1009.89 1009.69 1009.49
1018.97 1018.97 1019.21 1019.85 1020.09 1020.21 1020.37 1020.49 1020.57 1020.73 1020.85 1020.97 1021.13 1021.21 1021.37 1021.53 1021.57 1021.53 1021.41 1021.17 1020.97 1020.77 1020.57 1020.37 1020.17 1019.89 1019.61 1019.37 1019.13 1018.89 1018.65 1018.45 1018.25 1017.97 1017.73 1017.57 1017.33 1017.01 1016.81 1016.41 1016.25 1015.85 1015.45 1015.01 1014.69 1014.29 1013.61 1012.81 1012.37 1012.09 1011.89 1011.73 1011.45 1011.17 1010.85 1010.57 1010.25 1009.89 1009.57 1009.21 1008.97 1008.77
1019.61 1020.17 1020.25 1020.29 1020.37 1020.49 1020.69 1020.93 1021.05 1021.17 1021.21 1021.33 1021.53 1021.73 1021.85 1021.89 1021.89 1021.73 1021.53 1021.33 1021.09 1020.93 1020.73 1020.57 1020.41 1020.09 1019.77 1019.53 1019.29 1019.09 1018.93 1018.65 1018.29 1018.01 1017.81 1017.53 1017.17 1016.81 1016.49 1016.09 1015.85 1015.53 1015.17 1014.69 1014.33 1013.97 1013.25 1012.61 1012.05 1011.69 1011.37 1011.13 1010.93 1010.77 1010.49 1010.17 1009.69 1009.25 1008.85 1008.45 1008.21 1008.01
1020.21 1020.25 1020.37 1020.53 1020.73 1020.89 1021.29 1021.49 1021.65 1021.73 1021.89 1022.05 1022.17 1022.25 1022.29 1022.25 1022.13 1021.85 1021.69 1021.49 1021.33 1021.21 1021.05 1020.93 1020.77 1020.45 1020.17 1019.97 1019.73 1019.41 1019.05 1018.73 1018.45 1018.25 1018.01 1017.73 1017.17 1016.69 1016.29 1015.97 1015.53 1015.05 1014.73 1014.33 1013.77 1013.41 1012.97 1012.17 1011.57 1011.25 1010.93 1010.73 1010.45 1010.41 1010.21 1009.77 1009.25 1008.57 1008.13 1007.65 1007.37 1007.17
1020.37 1020.57 1020.73 1020.93 1021.13 1021.81 1022.01 1022.17 1022.33 1022.49 1022.57 1022.57 1022.57 1022.53 1022.53 1022.37 1022.13 1021.97 1021.89 1021.73 1021.57 1021.49 1021.37 1021.25 1021.09 1020.89 1020.61 1020.33 1020.09 1019.97 1019.69 1019.37 1019.05 1018.57 1018.21 1017.81 1017.37 1016.73 1016.17 1015.69 1015.25 1014.53 1014.05 1013.65 1013.25 1012.77 1012.37 1011.69 1011.13 1010.85 1010.61 1010.45 1010.25 1010.09 1009.85 1009.57 1009.01 1008.25 1007.49 1007.01 1006.45 1006.25
1020.57 1020.73 1021.05 1021.37 1022.13 1022.45 1022.53 1022.65 1022.85 1022.97 1022.93 1022.81 1022.77 1022.77 1022.57 1022.33 1022.21 1022.09 1022.05 1021.97 1021.85 1021.77 1021.69 1021.61 1021.53 1021.33 1021.21 1021.01 1020.69 1020.45 1020.17 1019.69 1019.21 1018.77 1018.41 1017.97 1017.61 1016.85 1016.13 1015.53 1015.01 1014.45 1013.69 1013.25 1012.93 1012.53 1012.09 1011.65 1010.97 1010.73 1010.49 1010.33 1010.01 1009.81 1009.69 1009.41 1009.09 1008.09 1007.21 1006.45 1005.89 1005.45
1020.89 1021.25 1021.53 1022.17 1022.57 1022.73 1022.85 1023.09 1023.29 1023.25 1023.13 1023.05 1022.93 1022.81 1022.57 1022.45 1022.41 1022.33 1022.25 1022.21 1022.17 1022.13 1022.09 1022.09 1022.01 1021.81 1021.53 1021.37 1021.05 1020.53 1020.05 1019.81 1019.53 1019.05 1018.69 1018.21 1017.61 1017.09 1016.33 1015.81 1015.29 1014.73 1013.81 1013.13 1012.65 1012.29 1011.73 1011.45 1011.01 1010.41 1010.17 1009.89 1009.61 1009.25 1009.25 1008.93 1008.49 1007.73 1007.01 1005.97 1005.29 1004.77
1021.37 1021.69 1022.09 1022.49 1022.85 1023.01 1023.21 1023.41 1023.53 1023.41 1023.29 1023.21 1023.09 1022.93 1022.77 1022.77 1022.69 1022.61 1022.57 1022.49 1022.45 1022.41 1022.33 1022.21 1021.97 1021.85 1021.61 1021.25 1021.01 1020.61 1020.05 1019.73 1019.57 1019.13 1018.69 1018.25 1017.73 1017.21 1016.61 1016.13 1015.61 1014.89 1013.81 1012.89 1012.41 1012.01 1011.53 1011.13 1010.97 1010.33 1009.69 1009.45 1009.17 1008.85 1008.61 1008.41 1007.73 1007.37 1006.93 1006.01 1004.89 1004.09
1022.01 1022.49 1022.77 1023.05 1023.17 1023.37 1023.49 1023.61 1023.65 1023.61 1023.57 1023.53 1023.29 1023.13 1023.09 1023.05 1023.01 1022.93 1022.81 1022.69 1022.57 1022.41 1022.25 1022.01 1021.85 1021.61 1021.41 1021.13 1020.85 1020.49 1019.89 1019.45 1019.25 1018.81 1018.53 1018.21 1017.61 1017.05 1016.41 1015.77 1015.25 1014.53 1013.41 1012.57 1011.93 1011.65 1011.33 1010.85 1010.49 1010.29 1009.61 1009.05 1008.73 1008.33 1007.77 1007.29 1006.73 1006.05 1005.69 1005.01 1004.01 1003.13
1022.73 1023.09 1023.21 1023.41 1023.53 1023.69 1023.77 1023.85 1023.89 1023.89 1023.89 1023.69 1023.41 1023.37 1023.33 1023.33 1023.29 1023.17 1023.01 1022.77 1022.53 1022.29 1021.97 1021.73 1021.49 1021.33 1021.09 1020.85 1020.45 1020.05 1019.65 1019.21 1018.89 1018.53 1018.17 1017.77 1017.29 1016.69 1016.01 1015.29 1014.89 1014.09 1013.21 1012.33 1011.37 1011.01 1010.77 1010.37 1010.01 1009.57 1009.37 1008.81 1008.17 1007.65 1007.05 1006.25 1005.53 1005.05 1004.45 1004.05 1003.05 1002.17
1023.17 1023.49 1023.61 1023.57 1023.77 1023.89 1024.01 1024.13 1024.25 1024.09 1024.05 1023.69 1023.61 1023.61 1023.53 1023.41 1023.33 1023.17 1022.97 1022.69 1022.37 1022.01 1021.65 1021.33 1021.13 1020.93 1020.61 1020.33 1020.09 1019.65 1019.17 1018.77 1018.49 1018.09 1017.57 1017.41 1016.85 1016.33 1015.69 1014.81 1014.45 1013.77 1012.97 1012.21 1011.33 1010.61 1010.21 1009.97 1009.65 1009.13 1008.81 1008.45 1007.77 1007.09 1006.33 1005.45 1004.65 1003.81 1003.13 1002.33 1001.57 1001.13
1023.53 1023.73 1023.81 1023.89 1023.97 1024.09 1024.21 1024.37 1024.45 1024.37 1023.97 1023.81 1023.81 1023.81 1023.77 1023.57 1023.33 1023.05 1022.77 1022.53 1022.13 1021.81 1021.49 1021.01 1020.53 1020.37 1020.09 1019.81 1019.53 1019.29 1018.89 1018.49 1018.05 1017.65 1017.17 1016.93 1016.37 1015.85 1015.29 1014.57 1014.05 1013.41 1012.73 1011.89 1011.05 1010.41 1009.85 1009.57 1009.33 1008.93 1008.65 1008.49 1007.97 1007.37 1006.73 1006.05 1005.05 1003.97 1002.81 1001.77 1000.77 1000.01
1023.61 1023.81 1023.97 1023.97 1024.01 1024.21 1024.37 1024.53 1024.53 1024.45 1024.21 1024.13 1024.01 1023.85 1023.73 1023.57 1023.33 1022.93 1022.57 1022.29 1021.89 1021.49 1021.25 1020.85 1020.29 1019.73 1019.41 1019.33 1019.01 1018.77 1018.53 1018.13 1017.73 1017.33 1016.85 1016.45 1015.93 1015.33 1014.81 1014.21 1013.61 1012.97 1012.33 1011.57 1010.77 1010.13 1009.53 1009.17 1008.97 1008.77 1008.45 1008.05 1007.61 1007.09 1006.53 1005.85 1004.85 1003.81 1002.77 1001.89 1001.01 1000.01
1023.89 1024.01 1024.13 1024.21 1024.21 1024.37 1024.49 1024.53 1024.53 1024.41 1024.33 1024.21 1024.05 1023.81 1023.61 1023.41 1023.17 1022.81 1022.25 1021.93 1021.65 1021.25 1020.85 1020.45 1019.93 1019.61 1019.13 1018.85 1018.81 1018.37 1018.01 1017.77 1017.45 1016.97 1016.53 1016.13 1015.49 1014.97 1014.17 1013.65 1013.05 1012.49 1011.77 1010.97 1010.25 1009.65 1008.89 1008.57 1008.25 1008.09 1007.85 1007.25 1006.89 1006.21 1005.69 1005.09 1004.41 1003.61 1002.65 1001.53 1000.49 999.77
1024.01 1024.21 1024.37 1024.45 1024.53 1024.57 1024.53 1024.49 1024.41 1024.37 1024.33 1024.17 1023.93 1023.73 1023.49 1023.13 1022.77 1022.49 1022.13 1021.73 1021.33 1020.89 1020.53 1020.25 1019.81 1019.45 1019.05 1018.53 1018.25 1018.09 1017.89 1017.45 1016.89 1016.45 1015.65 1015.29 1014.89 1014.33 1013.69 1012.77 1011.97 1011.41 1010.77 1010.21 1009.57 1009.01 1007.85 1007.41 1007.13 1006.77 1006.53 1005.85 1005.37 1004.89 1004.41 1003.97 1003.49 1002.97 1002.13 1001.41 1000.85 1000.13
1024.25 1024.45 1024.65 1024.69 1024.69 1024.65 1024.57 1024.45 1024.37 1024.29 1024.25 1024.05 1023.81 1023.61 1023.33 1022.89 1022.45 1022.13 1021.73 1021.45 1021.09 1020.65 1020.25 1019.89 1019.53 1019.17 1018.81 1018.37 1017.89 1017.45 1016.89 1016.73 1016.21 1015.41 1014.85 1013.85 1013.49 1012.89 1012.05 1011.53 1010.61 1009.93 1009.57 1008.81 1008.05 1007.97 1007.05 1006.01 1005.49 1005.21 1004.77 1004.25 1003.69 1003.21 1002.77 1002.37 1001.93 1001.57 1001.13 1000.45 999.77 999.53
1024.57 1024.69 1024.77 1024.73 1024.69 1024.69 1024.61 1024.49 1024.37 1024.21 1024.05 1023.85 1023.61 1023.41 1023.13 1022.85 1022.41 1021.89 1021.57 1021.21 1020.85 1020.49 1020.05 1019.57 1019.17 1018.81 1018.49 1018.05 1017.61 1017.09 1016.45 1015.73 1015.37 1015.13 1014.29 1013.57 1012.73 1012.01 1011.37 1010.65 1009.93 1009.29 1008.73 1008.29 1007.17 1006.45 1006.33 1005.41 1004.61 1004.29 1003.89 1003.53 1003.09 1002.65 1002.17 1001.77 1001.33 1000.93 1000.53 1000.17 999.77 999.09
1024.69 1024.81 1024.81 1024.81 1024.77 1024.69 1024.61 1024.53 1024.25 1024.09 1023.81 1023.61 1023.41 1023.21 1022.97 1022.73 1022.49 1021.93 1021.37 1021.01 1020.57 1020.17 1019.85 1019.41 1018.97 1018.49 1018.09 1017.61 1017.25 1016.77 1016.13 1015.49 1014.61 1013.85 1013.81 1013.17 1012.25 1011.73 1010.93 1010.21 1009.57 1008.97 1008.37 1007.65 1007.09 1006.29 1005.33 1005.09 1004.61 1003.97 1003.45 1002.93 1002.45 1001.97 1001.49 1001.05 1000.65 1000.25 999.85 999.45 999.17 998.69
1024.69 1024.81 1024.89 1024.85 1024.77 1024.69 1024.57 1024.45 1024.01 1023.81 1023.57 1023.33 1023.13 1022.93 1022.69 1022.41 1022.25 1021.81 1021.21 1020.77 1020.33 1019.93 1019.53 1019.05 1018.61 1018.17 1017.77 1017.29 1016.81 1016.33 1015.85 1015.21 1014.49 1013.53 1012.37 1012.05 1012.17 1011.41 1010.49 1009.81 1009.21 1008.61 1007.93 1007.33 1006.65 1006.05 1005.41 1004.57 1003.93 1003.33 1002.73 1002.25 1001.73 1001.21 1000.69 1000.21 999.73 999.37 999.01 998.65 998.29 997.73
1024.73 1024.85 1024.85 1024.81 1024.69 1024.57 1024.37 1024.13 1023.65 1023.49 1023.25 1023.01 1022.77 1022.61 1022.41 1022.13 1021.93 1021.61 1021.13 1020.53 1020.09 1019.69 1019.21 1018.73 1018.29 1017.85 1017.41 1016.97 1016.53 1016.05 1015.45 1014.85 1014.29 1013.57 1012.85 1011.73 1010.69 1010.33 1010.01 1009.57 1008.97 1008.17 1007.45 1006.93 1006.29 1005.61 1004.89 1004.17 1003.41 1002.69 1002.01 1001.37 1000.73 1000.17 999.65 999.17 998.77 998.45 998.09 997.89 997.45 997.13
1024.73 1024.77 1024.69 1024.57 1024.37 1024.25 1024.13 1023.77 1023.25 1023.09 1022.89 1022.69 1022.57 1022.33 1022.09 1021.81 1021.49 1021.13 1020.61 1020.21 1019.89 1019.49 1018.97 1018.41 1017.93 1017.49 1017.05 1016.57 1016.13 1015.61 1015.13 1014.49 1013.81 1013.33 1012.65 1012.01 1011.21 1010.25 1009.45 1008.73 1008.09 1007.57 1007.05 1006.33 1005.69 1005.01 1004.29 1003.49 1002.77 1002.05 1001.49 1000.85 1000.21 999.57 998.93 998.45 998.17 997.73 997.33 997.05 996.73 996.45
1024.73 1024.61 1024.45 1024.33 1024.21 1024.05 1023.77 1023.25 1022.85 1022.73 1022.61 1022.49 1022.29 1022.09 1021.77 1021.45 1021.17 1020.81 1020.37 1019.85 1019.49 1019.13 1018.65 1018.13 1017.61 1017.17 1016.73 1016.25 1015.65 1015.13 1014.57 1013.93 1013.37 1012.73 1012.13 1011.53 1010.93 1010.21 1009.29 1008.37 1007.81 1007.29 1006.29 1005.41 1004.81 1004.33 1003.77 1003.09 1002.37 1001.69 1000.93 1000.29 999.61 999.01 998.45 998.17 997.49 996.89 996.37 995.97 995.65 995.53
Thickness
5493 5494 5493 5492 5492 5490 5490 5488 5486 5485 5483 5482 5482 5481 5481 5481 5481 5481 5480 5480 5480 5479 5480 5480 5480 5481 5481 5482 5484 5485 5486 5487 5487 5488 5488 5488 5489 5490 5491 5493 5495 5497 5499 5501 5501 5502 5503 5506 5508 5510 5512 5513 5514 5514 5515 5515 5514 5516 5517 5516 5516 5517
5485 5485 5484 5484 5484 5482 5482 5479 5476 5474 5472 5471 5471 5470 5472 5472 5472 5471 5470 5470 5469 5468 5467 5467 5466 5466 5466 5467 5468 5469 5471 5472 5473 5473 5474 5476 5476 5477 5479 5480 5481 5483 5485 5487 5489 5489 5491 5493 5496 5498 5500 5502 5502 5502 5503 5504 5504 5506 5507 5506 5507 5508
5477 5477 5475 5475 5475 5473 5472 5469 5466 5464 5462 5460 5460 5459 5459 5460 5460 5460 5459 5459 5458 5457 5456 5454 5453 5452 5451 5452 5453 5454 5456 5457 5458 5459 5460 5461 5463 5464 5466 5468 5470 5472 5474 5476 5477 5478 5480 5482 5484 5486 5489 5490 5491 5491 5492 5492 5494 5495 5496 5497 5498 5499
5470 5468 5467 5466 5464 5462 5460 5458 5457 5454 5452 5450 5449 5447 5447 5446 5446 5446 5446 5446 5445 5444 5444 5442 5441 5439 5439 5439 5440 5441 5442 5443 5444 5445 5446 5448 5449 5451 5453 5455 5457 5459 5461 5464 5466 5467 5469 5470 5473 5476 5478 5480 5480 5480 5481 5481 5483 5484 5485 5486 5488 5489
5462 5460 5459 5456 5453 5451 5449 5447 5446 5444 5442 5440 5437 5436 5434 5434 5434 5433 5433 5432 5432 5431 5431 5430 5429 5428 5428 5428 5428 5428 5429 5430 5431 5432 5433 5435 5436 5438 5439 5441 5443 5445 5448 5450 5453 5456 5457 5459 5461 5463 5466 5468 5468 5469 5469 5470 5471 5473 5474 5475 5477 5478
5454 5450 5448 5445 5442 5439 5436 5434 5434 5433 5432 5429 5427 5424 5422 5421 5421 5420 5420 5420 5418 5418 5417 5417 5416 5416 5416 5415 5415 5416 5416 5417 5418 5419 5420 5421 5423 5424 5426 5427 5429 5431 5434 5437 5440 5443 5446 5449 5451 5452 5453 5455 5456 5457 5458 5459 5460 5462 5463 5465 5467 5468
5444 5440 5436 5434 5431 5427 5425 5423 5422 5421 5420 5417 5415 5412 5409 5408 5407 5406 5406 5406 5405 5405 5405 5404 5404 5404 5404 5403 5403 5403 5403 5404 5404 5405 5406 5407 5409 5411 5412 5415 5417 5420 5423 5426 5428 5431 5433 5436 5439 5441 5442 5443 5444 5445 5447 5449 5451 5452 5454 5455 5458 5460
5432 5429 5426 5422 5419 5417 5415 5412 5411 5409 5406 5404 5402 5400 5398 5396 5394 5392 5392 5392 5392 5391 5390 5390 5390 5390 5390 5391 5391 5391 5391 5391 5392 5393 5394 5395 5398 5399 5401 5403 5405 5408 5411 5414 5418 5420 5423 5425 5427 5430 5432 5433 5434 5436 5437 5439 5442 5443 5446 5447 5449 5451
5421 5419 5415 5411 5408 5405 5402 5400 5397 5395 5392 5390 5388 5386 5385 5383 5382 5380 5379 5379 5378 5378 5377 5377 5376 5377 5377 5377 5378 5378 5379 5379 5380 5381 5382 5383 5385 5388 5389 5392 5394 5396 5399 5402 5405 5407 5410 5413 5416 5418 5420 5422 5423 5426 5428 5430 5431 5433 5436 5438 5440 5442
5411 5408 5404 5400 5397 5393 5390 5388 5384 5381 5378 5376 5374 5372 5372 5370 5369 5367 5366 5365 5364 5363 5363 5363 5363 5364 5365 5365 5366 5366 5366 5367 5367 5368 5369 5371 5373 5375 5377 5379 5381 5384 5387 5389 5392 5395 5396 5399 5402 5404 5406 5408 5411 5413 5415 5419 5420 5423 5425 5429 5432 5433
5400 5397 5392 5389 5385 5381 5378 5375 5372 5369 5366 5364 5362 5360 5358 5357 5356 5354 5352 5351 5350 5349 5348 5349 5349 5350 5351 5351 5353 5354 5355 5356 5357 5357 5358 5358 5360 5362 5364 5366 5369 5371 5374 5376 5378 5381 5384 5386 5388 5391 5391 5393 5396 5399 5401 5405 5408 5410 5413 5416 5421 5424
5389 5385 5381 5378 5373 5369 5367 5363 5361 5357 5355 5353 5351 5349 5347 5345 5344 5342 5340 5338 5336 5335 5334 5334 5334 5334 5334 5335 5336 5338 5340 5341 5343 5344 5346 5347 5347 5349 5351 5353 5356 5358 5359 5363 5365 5367 5369 5372 5375 5377 5378 5380 5382 5384 5387 5391 5395 5398 5401 5404 5409 5413
5378 5373 5369 5365 5361 5358 5355 5352 5349 5346 5343 5342 5339 5337 5336 5334 5332 5330 5328 5326 5324 5323 5321 5320 5320 5319 5319 5319 5319 5321 5323 5323 5325 5328 5330 5332 5334 5336 5338 5340 5343 5345 5346 5348 5352 5354 5357 5359 5362 5364 5366 5368 5369 5370 5373 5377 5382 5386 5388 5392 5397 5401
5364 5359 5356 5353 5350 5347 5343 5340 5337 5334 5332 5329 5326 5325 5322 5320 5319 5317 5315 5314 5312 5310 5309 5307 5307 5306 5306 5306 5305 5306 5307 5307 5309 5310 5311 5315 5318 5321 5324 5327 5329 5332 5333 5334 5337 5341 5344 5348 5351 5353 5353 5355 5357 5358 5359 5362 5368 5373 5377 5381 5385 5389
5353 5348 5344 5341 5339 5336 5333 5330 5326 5323 5320 5317 5314 5311 5309 5306 5304 5302 5302 5301 5299 5298 5297 5295 5295 5295 5295 5295 5294 5293 5294 5294 5295 5296 5296 5298 5300 5303 5307 5311 5314 5317 5320 5321 5322 5326 5331 5334 5340 5342 5342 5343 5345 5346 5346 5348 5353 5359 5364 5369 5374 5378
5342 5338 5335 5331 5328 5325 5322 5318 5316 5312 5309 5306 5302 5299 5296 5293 5291 5289 5287 5288 5287 5285 5284 5283 5283 5283 5283 5283 5282 5281 5282 5282 5282 5283 5283 5282 5283 5285 5288 5291 5295 5299 5302 5305 5306 5310 5315 5321 5327 5329 5328 5330 5333 5334 5334 5335 5339 5345 5351 5357 5363 5367
5331 5328 5326 5320 5316 5313 5310 5306 5304 5301 5298 5294 5290 5287 5284 5280 5278 5276 5275 5275 5275 5274 5272 5271 5270 5270 5270 5270 5269 5269 5270 5269 5269 5269 5269 5268 5268 5270 5272 5274 5277 5281 5284 5287 5289 5291 5298 5307 5313 5314 5313 5315 5318 5320 5321 5321 5325 5332 5338 5344 5350 5354
5321 5317 5312 5308 5304 5301 5298 5294 5292 5289 5286 5282 5278 5275 5272 5268 5266 5264 5263 5264 5263 5262 5260 5259 5258 5257 5258 5257 5256 5256 5255 5254 5255 5255 5254 5253 5254 5257 5259 5260 5262 5263 5266 5270 5272 5273 5279 5290 5297 5298 5298 5299 5302 5304 5306 5307 5310 5316 5323 5331 5338 5342
5309 5303 5299 5296 5293 5289 5286 5283 5280 5277 5274 5270 5267 5263 5260 5257 5255 5254 5253 5253 5252 5250 5248 5246 5244 5244 5244 5243 5242 5242 5241 5240 5240 5240 5238 5236 5239 5243 5245 5247 5248 5250 5252 5254 5257 5258 5261 5270 5280 5283 5283 5284 5285 5286 5288 5291 5297 5302 5308 5316 5324 5329
5298 5292 5289 5287 5282 5278 5274 5270 5268 5265 5261 5258 5255 5252 5249 5247 5245 5245 5244 5242 5240 5238 5236 5233 5230 5230 5229 5229 5228 5226 5226 5226 5225 5225 5223 5221 5222 5227 5230 5231 5233 5237 5240 5241 5244 5245 5246 5253 5263 5268 5267 5268 5269 5268 5268 5272 5279 5286 5295 5303 5310 5316
5288 5283 5279 5276 5270 5265 5261 5258 5255 5252 5249 5247 5244 5241 5240 5238 5237 5235 5233 5232 5229 5226 5224 5221 5218 5216 5214 5213 5212 5210 5209 5210 5209 5209 5209 5207 5207 5210 5214 5217 5218 5222 5228 5230 5231 5234 5234 5239 5247 5252 5251 5252 5252 5251 5250 5252 5257 5266 5278 5290 5298 5302
5279 5274 5269 5264 5257 5253 5250 5247 5244 5241 5238 5237 5234 5232 5231 5229 5228 5226 5223 5221 5219 5215 5212 5208 5204 5202 5199 5196 5196 5195 5194 5194 5193 5193 5193 5192 5192 5194 5198 5202 5202 5205 5213 5217 5217 5220 5222 5225 5231 5236 5237 5235 5236 5237 5235 5234 5237 5246 5259 5274 5283 5289
5268 5263 5258 5252 5246 5243 5240 5236 5233 5230 5229 5227 5225 5223 5222 5220 5218 5216 5213 5211 5208 5203 5200 5195 5190 5188 5185 5182 5181 5181 5182 5180 5177 5176 5176 5175 5176 5179 5182 5185 5185 5186 5195 5203 5204 5206 5210 5212 5213 5219 5224 5222 5222 5224 5222 5218 5222 5231 5240 5251 5264 5273
5258 5251 5247 5242 5236 5233 5230 5226 5224 5221 5219 5217 5215 5212 5211 5209 5207 5205 5202 5199 5196 5191 5188 5184 5180 5176 5173 5171 5168 5167 5169 5168 5163 5162 5161 5159 5160 5163 5165 5168 5169 5171 5179 5189 5192 5192 5196 5198 5198 5202 5208 5210 5209 5211 5209 5207 5210 5218 5223 5230 5243 5258
5246 5240 5235 5231 5227 5223 5220 5216 5214 5212 5209 5207 5204 5202 5200 5198 5195 5193 5191 5187 5184 5181 5178 5174 5171 5167 5162 5160 5156 5155 5156 5155 5153 5151 5149 5147 5148 5151 5154 5157 5158 5160 5168 5177 5181 5182 5183 5185 5186 5187 5191 5195 5196 5197 5199 5199 5202 5208 5211 5215 5229 5246
5235 5229 5224 5221 5216 5212 5209 5206 5204 5202 5199 5196 5195 5192 5190 5188 5184 5181 5179 5176 5174 5172 5169 5166 5162 5158 5154 5150 5147 5146 5146 5145 5143 5142 5141 5140 5139 5142 5146 5148 5149 5152 5159 5166 5172 5174 5174 5174 5176 5178 5178 5181 5184 5186 5189 5193 5197 5201 5204 5207 5218 5234
5223 5218 5214 5211 5207 5202 5199 5196 5193 5191 5189 5187 5185 5182 5180 5177 5174 5172 5169 5167 5166 5163 5160 5159 5155 5151 5147 5144 5140 5138 5138 5137 5136 5136 5135 5134 5133 5134 5138 5141 5141 5144 5149 5155 5161 5165 5165 5164 5166 5168 5168 5168 5171 5175 5180 5183 5189 5195 5199 5204 5212 5225
5211 5207 5204 5201 5197 5193 5190 5186 5182 5181 5179 5178 5176 5172 5170 5168 5165 5164 5162 5159 5157 5155 5152 5151 5150 5146 5142 5139 5135 5133 5131 5131 5131 5131 5130 5129 5128 5128 5130 5133 5135 5136 5139 5144 5149 5153 5155 5154 5153 5155 5155 5154 5157 5161 5165 5169 5176 5183 5190 5197 5205 5216
5202 5198 5195 5192 5188 5184 5181 5177 5173 5171 5169 5169 5166 5164 5162 5160 5157 5157 5155 5152 5150 5149 5145 5143 5143 5141 5138 5134 5131 5129 5127 5126 5125 5126 5125 5123 5122 5124 5125 5126 5127 5128 5130 5135 5139 5141 5145 5145 5143 5143 5143 5142 5145 5149 5153 5157 5165 5172 5179 5187 5195 5205
5193 5189 5186 5183 5179 5176 5173 5170 5167 5163 5161 5160 5159 5157 5156 5153 5151 5149 5149 5147 5145 5143 5141 5138 5135 5134 5132 5130 5128 5125 5124 5123 5122 5121 5120 5118 5117 5118 5120 5120 5122 5122 5123 5127 5131 5133 5138 5139 5136 5134 5134 5135 5139 5144 5147 5151 5156 5161 5169 5178 5185 5193
5184 5180 5176 5173 5171 5169 5166 5164 5160 5157 5155 5154 5152 5151 5149 5148 5146 5145 5143 5142 5140 5138 5136 5133 5129 5127 5126 5127 5125 5124 5122 5120 5118 5119 5121 5118 5115 5115 5116 5119 5120 5120 5120 5123 5126 5128 5133 5138 5136 5132 5131 5134 5138 5142 5145 5148 5151 5155 5162 5170 5176 5180
5174 5171 5167 5165 5163 5161 5159 5157 5154 5151 5149 5147 5146 5144 5143 5142 5142 5141 5140 5138 5136 5134 5132 5128 5125 5123 5122 5122 5123 5123 5122 5120 5117 5116 5118 5119 5117 5115 5114 5115 5117 5116 5115 5119 5123 5123 5127 5134 5137 5135 5134 5135 5138 5140 5144 5147 5150 5153 5158 5164 5169 5171
5165 5162 5159 5158 5156 5154 5152 5150 5147 5146 5144 5143 5140 5139 5137 5136 5136 5137 5136 5134 5132 5130 5127 5123 5121 5120 5119 5119 5119 5120 5122 5123 5120 5116 5114 5115 5116 5115 5112 5110 5111 5111 5109 5112 5117 5119 5121 5125 5129 5130 5131 5132 5134 5137 5140 5144 5147 5150 5153 5157 5160 5164
5158 5154 5153 5151 5149 5148 5146 5143 5142 5141 5139 5138 5135 5133 5132 5131 5130 5131 5132 5130 5128 5127 5123 5119 5118 5117 5116 5116 5117 5116 5117 5120 5122 5121 5118 5113 5111 5111 5109 5107 5107 5107 5107 5106 5108 5113 5115 5117 5119 5121 5124 5126 5129 5132 5136 5139 5142 5146 5149 5151 5153 5160
5151 5148 5146 5144 5143 5142 5140 5138 5137 5136 5134 5133 5131 5129 5128 5127 5126 5126 5127 5127 5126 5124 5120 5117 5116 5114 5114 5114 5114 5114 5114 5115 5118 5122 5122 5119 5113 5108 5105 5104 5103 5103 5105 5104 5104 5105 5108 5110 5113 5116 5119 5122 5125 5128 5132 5136 5140 5143 5145 5148 5152 5160
5145 5142 5140 5139 5138 5137 5135 5133 5133 5132 5130 5129 5127 5125 5125 5124 5123 5123 5123 5123 5122 5120 5118 5116 5113 5111 5111 5110 5110 5110 5111 5111 5112 5115 5117 5119 5118 5114 5109 5106 5104 5102 5102 5102 5103 5103 5104 5106 5110 5112 5116 5119 5123 5127 5130 5134 5138 5141 5144 5147 5152 5158
5140 5137 5135 5135 5134 5132 5131 5130 5129 5128 5127 5125 5123 5122 5122 5122 5121 5121 5121 5121 5120 5118 5116 5114 5112 5110 5109 5108 5107 5108 5108 5108 5110 5111 5110 5112 5113 5113 5113 5111 5108 5106 5104 5103 5103 5104 5104 5105 5108 5110 5113 5116 5120 5124 5128 5132 5136 5140 5144 5147 5150 5155
5134 5132 5131 5131 5130 5128 5128 5127 5126 5124 5122 5120 5119 5119 5119 5120 5120 5119 5120 5120 5118 5115 5114 5113 5111 5109 5108 5108 5108 5107 5107 5107 5108 5109 5109 5109 5108 5108 5110 5111 5110 5109 5108 5106 5105 5104 5104 5105 5106 5108 5111 5114 5118 5123 5126 5129 5134 5140 5145 5148 5151 5155